Wind_Speed
28 28 28 29 29 29 26 24 21 20 19 19 20 21 20 19 18 17 16 15 14 14 14 13 12 12 11 10 10 10 10 10 9 9 9 8 8 8 7 7 6 6 6 6 6 6 5 5 5
29 30 30 31 32 30 27 24 23 22 22 22 23 22 22 21 20 19 18 17 16 16 15 15 14 13 12 12 11 11 11 11 11 11 11 10 10 9 9 8 8 8 8 8 7 7 7 6 6
31 32 33 34 34 31 27 25 25 25 25 26 25 24 23 22 22 21 20 19 19 18 17 16 15 15 14 13 13 13 13 13 12 12 12 11 11 11 11 10 9 9 9 9 8 8 7 7 7
32 33 35 36 34 31 29 28 28 28 28 28 28 26 25 24 24 23 22 21 20 20 19 18 17 17 16 15 15 15 14 14 14 14 13 12 12 12 12 11 10 10 10 10 9 9 8 8 8
35 36 37 37 34 32 31 30 31 31 30 30 30 29 27 26 25 24 24 23 22 21 20 20 19 19 18 17 16 16 16 16 15 15 14 14 13 13 12 12 11 11 11 11 11 10 10 10 10
37 38 39 37 34 33 32 32 33 33 32 32 32 31 29 28 27 26 25 25 24 23 22 22 21 21 21 20 19 18 18 17 17 16 16 15 15 14 14 14 13 13 13 13 13 12 12 11 11
38 39 40 39 36 35 34 34 35 35 35 35 33 32 31 30 29 29 27 27 26 25 24 24 23 23 22 21 20 20 19 19 18 18 17 17 16 16 16 16 15 15 15 15 14 14 13 13 12
38 40 41 40 38 37 37 37 37 38 38 37 36 35 33 32 31 31 30 29 28 27 26 26 25 24 24 23 22 21 21 21 21 20 20 19 18 18 18 17 17 17 17 17 16 15 15 14 14
39 41 41 40 40 39 39 39 40 41 40 40 39 37 35 35 34 33 32 31 30 29 28 28 27 26 26 25 24 23 23 23 22 22 22 22 21 20 20 19 19 19 18 18 18 17 17 16 16
41 42 41 41 41 41 41 41 41 42 43 42 41 40 38 37 36 35 34 33 32 31 30 29 28 28 27 26 26 25 25 24 24 24 23 23 23 22 22 21 21 20 20 20 20 19 19 19 18
41 42 41 41 42 42 42 42 42 44 45 44 43 42 41 39 38 37 36 35 34 33 32 31 30 29 29 28 27 26 26 26 26 25 25 25 25 24 24 23 23 23 22 22 21 21 21 21 20
40 41 41 42 43 44 44 43 44 45 46 45 45 44 43 42 41 40 38 37 36 35 34 33 32 31 30 30 29 28 27 27 26 26 27 26 26 26 25 25 24 24 24 24 23 23 23 23 23
39 39 41 42 43 45 46 45 46 46 46 47 46 46 45 44 43 42 41 39 38 37 36 36 35 34 33 32 30 30 29 29 28 28 28 28 28 28 27 26 26 26 26 26 26 25 25 25 25
37 38 39 40 42 44 46 46 46 47 47 47 47 47 46 45 44 44 43 42 40 39 38 38 38 37 35 34 32 31 31 31 30 30 30 31 30 30 29 29 28 28 28 28 28 28 27 27 26
35 35 36 37 39 40 44 45 45 46 47 47 47 47 47 46 45 45 44 43 42 41 40 39 39 38 37 36 34 33 32 32 32 32 31 32 32 32 31 31 31 30 30 30 30 30 29 29 28
32 33 34 34 35 37 40 42 42 43 44 46 46 47 47 46 45 45 44 44 43 43 42 41 40 39 38 37 36 35 34 34 34 34 32 33 33 33 33 32 32 32 31 32 32 32 31 31 30
31 32 32 32 33 34 37 39 40 40 42 44 45 46 46 46 46 45 45 44 44 44 43 42 40 40 39 38 38 37 36 36 35 35 35 34 34 35 35 35 35 34 33 33 33 33 34 34 33
29 31 31 31 31 33 35 36 37 38 40 43 43 44 45 45 45 45 46 45 45 44 43 42 41 41 40 40 39 38 38 37 37 37 36 36 35 36 37 36 36 36 36 35 35 35 36 36 35
27 28 29 29 29 32 33 35 35 35 37 40 42 42 43 44 44 44 44 45 45 45 44 43 41 42 42 41 40 40 39 39 39 38 38 38 38 37 38 38 38 38 38 38 37 37 37 38 37
25 26 26 27 27 31 32 34 34 34 35 37 40 41 41 42 43 44 44 45 45 44 44 44 42 42 43 42 41 40 41 40 40 40 40 40 40 39 39 39 39 40 40 40 40 40 39 39 39
24 24 24 25 26 28 30 31 32 32 32 34 37 40 40 40 41 41 43 44 44 44 43 43 43 43 43 43 42 41 41 42 41 40 40 39 40 40 40 40 41 42 42 42 42 42 42 42 42
20 22 23 24 26 28 30 30 30 30 31 32 34 36 37 38 39 40 42 43 44 44 43 43 43 43 42 42 41 41 41 41 40 40 40 40 40 41 42 42 42 43 44 44 44 44 44 44 44
18 20 22 23 25 26 28 29 27 29 31 30 32 34 34 36 36 39 41 41 41 41 42 42 40 41 42 43 42 41 41 42 41 41 42 42 42 43 43 44 44 44 45 46 46 45 45 45 45
17 19 22 24 25 25 27 29 28 27 29 29 30 32 34 35 35 38 40 40 40 40 42 43 41 41 41 42 43 42 43 43 43 43 44 45 45 45 45 45 46 46 46 47 47 47 47 46 46
16 18 20 22 24 25 25 29 28 26 27 27 28 30 30 32 34 36 39 40 40 40 41 43 43 42 42 42 42 43 44 44 45 46 45 46 46 46 46 46 47 47 48 48 48 48 48 48 48
15 17 19 21 23 23 24 27 26 25 26 26 27 28 29 30 33 35 37 37 40 40 41 42 42 42 42 42 43 43 44 44 45 46 46 47 47 46 46 46 46 47 48 48 48 49 48 48 48
14 15 16 19 22 23 23 23 24 24 25 26 26 28 29 30 31 34 36 36 37 39 40 41 42 42 42 42 43 44 45 46 46 46 47 48 48 47 46 46 46 46 46 47 47 49 49 49 48
13 14 15 17 19 22 22 21 21 22 25 26 26 27 28 29 31 32 33 33 34 36 39 40 40 42 43 43 44 45 46 47 47 47 46 46 46 46 46 47 48 47 46 45 45 47 48 49 49
14 14 15 17 18 21 23 22 19 20 23 25 26 26 28 28 31 32 33 33 34 35 37 39 40 41 41 42 43 44 46 46 47 47 46 46 46 46 46 46 46 46 46 45 46 46 47 47 49
16 16 16 17 18 20 22 21 18 19 21 23 25 26 27 29 30 31 32 33 34 36 36 38 39 40 41 42 43 43 44 44 46 46 46 46 46 45 45 45 46 46 46 46 46 46 47 48 49
Wind_Direction
241 240 240 240 240 241 241 240 240 238 238 238 238 239 239 238 239 240 238 236 235 233 233 236 239 242 243 244 246 247 246 248 249 252 254 256 257 260 261 263 266 269 273 274 275 278 283 289 296
242 241 241 241 241 241 241 242 242 241 240 239 240 240 239 240 239 240 239 238 237 236 236 238 240 242 244 246 247 249 249 249 250 253 256 257 258 260 261 263 266 268 272 275 275 277 280 284 289
242 242 242 241 241 242 241 241 241 241 241 241 241 241 240 241 241 241 240 239 239 238 239 240 241 242 244 246 248 251 251 251 252 253 256 257 258 260 260 262 264 268 271 272 274 277 280 284 287
243 242 242 242 242 242 242 241 241 240 241 241 242 242 241 241 242 242 241 241 241 239 240 241 241 242 244 245 247 250 251 251 252 253 254 256 258 258 259 261 264 267 269 271 273 276 279 282 285
244 243 243 243 242 242 242 241 242 242 242 242 243 243 242 240 241 242 242 242 242 241 241 242 243 244 245 246 246 248 249 250 252 252 252 254 255 256 258 260 263 266 268 270 272 274 276 279 282
244 244 244 244 243 243 243 242 242 242 241 242 243 243 243 242 241 241 242 242 242 243 243 243 244 245 247 247 248 248 249 249 249 250 250 252 253 255 257 260 262 265 267 269 269 272 275 278 282
244 245 246 246 245 244 244 243 242 242 242 243 243 244 244 243 241 240 240 242 241 242 244 245 245 247 248 249 249 249 248 248 248 249 249 250 251 253 256 259 261 264 266 268 270 270 273 277 280
245 246 246 246 245 245 245 243 243 243 242 243 243 242 242 243 242 241 241 242 241 243 244 245 245 246 248 249 250 250 250 249 249 249 250 250 252 253 256 258 260 263 265 268 270 270 272 275 278
245 245 246 246 245 245 244 243 242 242 241 241 242 242 243 242 242 242 241 243 242 242 244 245 246 247 248 248 249 250 250 251 250 250 251 251 252 254 255 257 260 261 264 267 269 270 271 273 276
246 246 247 246 246 245 244 243 241 242 242 241 242 241 241 242 242 242 242 243 243 243 244 245 246 247 247 248 248 249 249 249 250 250 251 252 253 254 254 256 259 261 263 266 267 269 271 273 275
247 247 247 246 246 245 244 243 241 240 240 241 241 241 242 242 243 243 243 243 243 243 244 245 245 245 246 246 247 249 250 249 249 249 250 251 252 253 254 256 257 259 262 263 265 267 269 272 274
248 249 248 247 246 245 243 242 240 240 240 240 240 241 242 243 243 243 243 243 243 243 243 243 243 243 245 246 246 248 250 250 249 249 250 251 251 252 254 256 258 260 263 264 265 267 269 270 272
249 249 249 247 245 244 243 241 240 240 239 239 239 240 242 242 242 242 243 243 242 242 242 242 242 242 244 245 246 247 249 250 250 250 251 251 251 252 255 257 259 262 264 265 266 267 269 271 273
251 250 250 248 245 243 242 241 240 239 239 239 239 240 241 242 242 242 243 242 242 241 241 241 242 242 243 244 246 247 249 251 252 251 252 251 251 252 255 257 259 262 264 266 267 268 270 271 272
252 250 248 246 244 243 243 241 240 239 239 240 239 239 239 241 241 242 242 242 241 240 240 241 242 242 242 243 245 247 248 250 252 252 253 254 253 254 256 258 259 261 264 266 267 269 269 270 272
251 249 246 243 243 243 243 242 238 238 239 240 239 238 239 240 241 241 241 240 240 240 239 240 241 242 242 243 245 246 248 249 251 252 254 255 256 258 258 259 259 260 263 265 267 268 269 270 272
250 249 245 243 242 242 244 243 237 237 238 239 238 238 239 240 240 240 240 239 239 238 238 239 240 241 242 243 244 246 247 249 251 253 254 256 257 259 259 259 260 260 262 264 266 267 268 270 271
250 249 247 244 241 242 244 242 239 238 238 239 238 237 239 240 240 239 238 238 237 237 237 237 238 241 242 243 244 246 248 250 252 254 255 256 258 260 260 260 261 261 262 263 265 267 268 269 271
255 251 248 242 240 241 242 242 240 238 238 238 237 236 238 239 239 239 238 237 236 235 236 236 238 241 242 244 245 246 248 250 253 255 256 257 259 260 260 261 262 263 263 264 265 266 267 269 271
254 251 244 242 241 240 241 241 241 240 239 239 237 238 239 239 238 237 236 236 234 234 236 236 237 241 243 244 246 247 248 249 252 254 256 258 259 261 261 262 262 263 264 265 265 266 268 270 271
253 245 241 243 241 239 240 242 240 238 238 237 237 238 239 238 237 234 235 234 232 233 234 237 239 241 243 245 246 247 248 250 252 254 256 258 261 262 262 263 263 263 264 265 266 267 268 270 271
250 243 243 243 242 241 240 243 239 237 236 237 237 237 238 236 234 233 234 233 232 232 233 236 238 240 242 244 246 248 250 252 254 255 257 259 261 262 263 263 264 263 264 265 266 267 268 270 271
255 246 242 244 243 243 242 245 244 239 238 240 241 239 238 237 235 234 234 233 233 233 233 235 238 241 243 245 248 249 251 253 254 255 257 259 261 262 263 265 266 266 265 266 266 267 268 270 271
255 244 242 243 243 244 243 246 246 243 242 242 243 242 241 239 238 237 235 232 233 233 235 237 239 243 245 248 249 250 252 254 255 257 258 260 261 263 264 265 266 267 267 267 267 267 268 269 271
250 245 244 242 242 245 248 248 245 243 243 244 245 244 244 241 239 239 236 234 233 234 236 239 240 244 246 248 251 252 253 256 257 258 259 261 263 265 266 266 266 267 267 267 267 267 268 269 271
250 248 245 246 248 250 250 249 246 246 245 244 247 248 246 245 242 240 236 237 235 236 238 239 241 244 246 248 252 254 256 258 259 259 260 261 263 265 266 266 267 267 267 267 268 268 268 269 270
249 249 252 254 255 253 250 250 247 246 246 244 248 250 249 249 245 240 239 240 239 238 240 241 243 246 247 249 251 254 257 259 261 262 262 262 263 265 264 264 266 268 267 267 267 267 268 268 269
249 253 257 257 259 256 252 252 250 247 246 246 249 248 248 249 247 241 240 238 240 242 242 243 245 246 248 250 252 256 258 260 261 262 263 264 264 265 264 264 265 266 268 269 268 268 269 268 268
252 255 258 259 259 261 259 258 259 257 254 251 248 249 250 252 251 246 242 238 241 243 244 245 246 249 251 254 255 256 257 259 261 261 261 262 264 265 265 265 265 266 268 269 269 269 269 270 269
258 261 263 264 262 263 265 263 262 258 257 254 252 251 252 254 253 249 244 242 244 246 246 246 248 250 253 255 258 258 259 260 260 260 261 263 263 263 264 265 266 267 268 270 272 272 272 271 271
Height
5841 5843 5845 5847 5848 5849 5852 5856 5859 5861 5862 5863 5864 5865 5867 5869 5871 5874 5874 5874 5875 5876 5877 5877 5878 5879 5880 5880 5881 5881 5882 5883 5883 5883 5884 5884 5884 5884 5884 5884 5884 5884 5884 5883 5883 5882 5882 5881 5881
5835 5837 5839 5841 5841 5844 5849 5852 5855 5857 5858 5859 5860 5861 5863 5865 5867 5869 5870 5871 5872 5873 5874 5875 5876 5877 5878 5878 5879 5880 5880 5881 5881 5882 5882 5883 5883 5883 5883 5883 5883 5883 5883 5882 5882 5881 5881 5880 5880
5829 5831 5833 5834 5835 5840 5845 5848 5850 5852 5853 5854 5855 5857 5860 5862 5863 5865 5867 5868 5869 5871 5872 5873 5874 5875 5875 5876 5877 5878 5878 5879 5880 5880 5880 5881 5881 5881 5882 5882 5882 5881 5881 5881 5881 5880 5880 5879 5878
5822 5823 5825 5827 5830 5836 5839 5843 5844 5846 5847 5848 5851 5853 5855 5858 5860 5861 5863 5864 5866 5867 5869 5870 5871 5872 5873 5874 5874 5875 5876 5877 5877 5878 5878 5879 5879 5879 5880 5880 5880 5880 5880 5879 5879 5879 5878 5878 5877
5814 5815 5817 5819 5825 5830 5833 5836 5837 5840 5841 5843 5846 5848 5850 5853 5855 5857 5859 5860 5862 5864 5865 5866 5867 5869 5870 5871 5871 5872 5873 5874 5875 5875 5876 5876 5877 5877 5878 5878 5878 5878 5878 5877 5877 5877 5876 5876 5875
5805 5806 5809 5812 5819 5823 5826 5829 5830 5833 5835 5837 5840 5842 5845 5848 5850 5852 5854 5856 5858 5860 5861 5862 5864 5865 5866 5867 5868 5869 5870 5871 5871 5872 5873 5873 5874 5875 5875 5875 5875 5875 5875 5875 5875 5875 5874 5874 5873
5796 5797 5800 5805 5811 5815 5819 5821 5823 5825 5828 5831 5833 5836 5839 5842 5844 5846 5849 5851 5853 5854 5856 5858 5859 5861 5862 5863 5864 5865 5866 5867 5868 5869 5869 5870 5871 5871 5872 5872 5873 5873 5873 5872 5872 5872 5872 5871 5871
5786 5788 5791 5796 5802 5807 5810 5812 5814 5817 5820 5823 5826 5830 5833 5836 5838 5841 5843 5845 5847 5849 5851 5853 5854 5855 5857 5858 5859 5860 5861 5862 5864 5865 5866 5866 5867 5868 5868 5869 5869 5869 5869 5869 5869 5869 5869 5868 5868
5775 5779 5781 5787 5792 5797 5800 5802 5805 5808 5811 5814 5818 5822 5826 5828 5831 5834 5836 5839 5841 5843 5845 5847 5849 5850 5852 5853 5854 5855 5856 5857 5859 5860 5861 5862 5863 5864 5864 5865 5865 5866 5866 5866 5866 5866 5865 5865 5864
5764 5767 5773 5778 5782 5786 5789 5792 5795 5798 5801 5805 5809 5813 5816 5820 5823 5826 5829 5832 5835 5837 5839 5841 5843 5844 5846 5847 5849 5850 5851 5852 5853 5855 5856 5857 5858 5859 5860 5861 5861 5861 5862 5862 5862 5862 5861 5861 5861
5752 5757 5762 5766 5769 5773 5777 5780 5783 5786 5791 5796 5800 5804 5808 5811 5815 5818 5822 5825 5828 5830 5832 5834 5836 5838 5839 5841 5843 5844 5845 5846 5848 5849 5851 5852 5853 5854 5855 5856 5856 5856 5857 5857 5857 5857 5857 5857 5857
5741 5745 5750 5754 5757 5760 5764 5768 5772 5775 5781 5786 5790 5794 5798 5802 5806 5810 5814 5817 5820 5822 5825 5827 5829 5831 5833 5835 5836 5838 5839 5841 5842 5843 5845 5846 5847 5848 5849 5850 5851 5851 5852 5852 5853 5853 5853 5852 5852
5730 5734 5737 5741 5744 5747 5751 5756 5760 5764 5769 5774 5779 5783 5788 5792 5796 5800 5805 5809 5812 5815 5817 5820 5822 5824 5826 5828 5830 5832 5833 5835 5836 5837 5838 5840 5841 5842 5843 5844 5845 5846 5846 5847 5847 5847 5847 5847 5847
5720 5722 5725 5728 5731 5734 5738 5744 5748 5754 5758 5762 5767 5772 5777 5782 5785 5790 5795 5800 5803 5806 5809 5812 5814 5817 5819 5821 5823 5825 5827 5828 5830 5831 5832 5833 5835 5836 5837 5838 5839 5840 5841 5841 5842 5842 5842 5842 5842
5709 5712 5714 5717 5720 5723 5726 5732 5738 5743 5746 5751 5756 5761 5766 5771 5775 5780 5785 5789 5794 5797 5801 5803 5806 5809 5811 5814 5816 5818 5820 5821 5823 5824 5825 5826 5828 5829 5830 5831 5832 5833 5834 5835 5835 5835 5836 5836 5836
5700 5702 5705 5709 5711 5714 5717 5721 5728 5731 5734 5739 5744 5749 5755 5760 5764 5769 5774 5779 5783 5788 5792 5795 5798 5801 5804 5806 5809 5811 5812 5814 5816 5817 5818 5819 5820 5822 5823 5824 5825 5826 5827 5828 5828 5828 5829 5829 5829
5691 5693 5696 5701 5703 5705 5707 5711 5718 5721 5724 5728 5733 5738 5743 5748 5753 5759 5763 5768 5772 5777 5782 5786 5790 5793 5796 5798 5801 5803 5805 5807 5808 5809 5811 5811 5813 5814 5815 5816 5817 5818 5819 5819 5820 5821 5821 5821 5821
5685 5686 5689 5692 5695 5697 5699 5703 5708 5711 5715 5718 5723 5728 5733 5738 5743 5748 5752 5757 5762 5767 5772 5777 5781 5784 5787 5790 5792 5795 5797 5799 5800 5802 5803 5804 5805 5806 5806 5808 5809 5810 5811 5812 5812 5813 5813 5813 5813
5679 5680 5683 5686 5688 5690 5692 5695 5699 5702 5705 5709 5713 5717 5722 5727 5732 5735 5741 5746 5751 5756 5762 5767 5772 5775 5778 5781 5784 5787 5789 5791 5793 5794 5795 5796 5796 5797 5798 5799 5800 5801 5802 5803 5803 5804 5804 5804 5804
5673 5674 5676 5680 5682 5683 5685 5688 5692 5695 5698 5701 5704 5708 5712 5716 5721 5725 5731 5736 5740 5746 5752 5757 5762 5766 5769 5773 5775 5778 5781 5783 5784 5786 5786 5787 5788 5789 5789 5790 5791 5792 5793 5794 5794 5795 5795 5795 5795
5668 5669 5671 5673 5675 5677 5678 5680 5684 5687 5690 5693 5696 5699 5702 5706 5710 5715 5721 5726 5731 5736 5742 5748 5752 5757 5760 5763 5766 5769 5771 5773 5775 5776 5778 5779 5779 5780 5781 5781 5782 5783 5784 5784 5785 5785 5785 5785 5785
5664 5666 5667 5668 5669 5670 5673 5672 5677 5679 5683 5685 5688 5691 5693 5697 5702 5706 5711 5716 5722 5728 5733 5738 5742 5747 5750 5753 5756 5759 5762 5764 5766 5767 5769 5770 5770 5771 5771 5772 5772 5773 5774 5774 5775 5775 5775 5775 5775
5660 5661 5663 5664 5664 5665 5667 5667 5671 5673 5676 5679 5682 5684 5687 5690 5694 5698 5702 5708 5713 5718 5723 5728 5732 5737 5741 5744 5747 5749 5752 5755 5756 5758 5759 5760 5760 5761 5761 5762 5762 5763 5763 5764 5764 5765 5765 5765 5765
5656 5657 5658 5659 5660 5661 5662 5662 5664 5667 5671 5674 5676 5678 5680 5683 5687 5690 5693 5698 5704 5709 5714 5719 5723 5727 5730 5734 5737 5740 5742 5744 5746 5747 5748 5749 5750 5750 5751 5751 5751 5752 5752 5753 5753 5754 5754 5754 5754
5652 5653 5654 5654 5655 5656 5658 5657 5660 5664 5666 5668 5670 5672 5674 5677 5679 5682 5686 5690 5696 5700 5705 5709 5714 5717 5721 5724 5727 5729 5731 5733 5735 5736 5737 5738 5739 5739 5739 5740 5740 5740 5741 5741 5741 5742 5742 5742 5742
5649 5650 5651 5651 5651 5652 5653 5652 5657 5659 5661 5662 5664 5666 5667 5670 5672 5675 5678 5683 5687 5692 5697 5700 5704 5708 5711 5714 5716 5718 5720 5722 5724 5725 5726 5726 5727 5727 5728 5728 5728 5728 5728 5728 5729 5729 5729 5730 5730
5645 5646 5647 5647 5646 5647 5647 5649 5652 5654 5655 5657 5659 5660 5661 5663 5666 5668 5671 5675 5679 5684 5688 5692 5695 5698 5701 5704 5706 5708 5709 5711 5712 5712 5713 5713 5714 5714 5715 5715 5715 5715 5715 5715 5716 5716 5717 5717 5717
5642 5642 5642 5642 5642 5642 5643 5645 5648 5649 5650 5652 5653 5655 5656 5657 5660 5662 5664 5668 5671 5675 5680 5683 5686 5689 5691 5693 5695 5697 5698 5699 5700 5700 5700 5701 5701 5702 5702 5703 5703 5703 5703 5703 5703 5703 5704 5704 5704
5640 5640 5639 5638 5638 5638 5639 5644 5644 5644 5645 5647 5648 5650 5651 5653 5654 5655 5658 5661 5664 5667 5670 5673 5676 5678 5681 5683 5684 5686 5687 5688 5688 5689 5689 5690 5690 5690 5690 5691 5691 5691 5691 5691 5691 5691 5691 5691 5692
5636 5636 5635 5635 5635 5634 5635 5641 5639 5640 5640 5641 5642 5643 5644 5646 5647 5649 5651 5654 5657 5659 5662 5665 5667 5669 5671 5672 5673 5675 5676 5676 5677 5677 5678 5679 5679 5678 5678 5678 5679 5679 5679 5679 5679 5679 5679 5678 5679